Colorado Springs, CO

12:34 AM MDT on August 25, 2016 (GMT -0600)
Usaf Academy

Weather History for KAFF - September, 2014

Change the Weather History Date:

Saturday, September 20, 2014

  Actual Average Record
Temperature  
Mean Temperature 65 °F -  
Max Temperature 79 °F 67 °F 87 °F (2010)
Min Temperature 51 °F 41 °F 35 °F (2000)
Growing Degree Days 15 (Base 50)    
Moisture  
Dew Point 47 °F    
Average Humidity 51    
Maximum Humidity 76    
Minimum Humidity 29    
Precipitation  
Precipitation 0.00 in - - ()
Sea Level Pressure  
Sea Level Pressure 30.17 in    
Wind  
Wind Speed 9 mph (NNW)    
Max Wind Speed 17 mph    
Max Gust Speed 20 mph    
Visibility 8 miles    
Events      
Averages and records for this station are not official NWS values.
T = Trace of Precipitation, MM = Missing Value Source: NWS Daily Summary

Daily Weather History Graph

Daily Weather History Graph

Search for Another Location

Airport or City:

Trip Planner

Search our weather history database for the weather conditions in past years. The results will help you decide how hot, cold, wet, or windy it might be!

Date:

Astronomy

Sep. 20, 2014 Rise Set
Actual Time 6:45 AM MDT 6:59 PM MDT
Civil Twilight 6:18 AM MDT 7:26 PM MDT
Nautical Twilight 5:47 AM MDT 7:57 PM MDT
Astronomical Twilight 5:15 AM MDT 8:28 PM MDT
Moon 3:28 AM MDT (9/20) 5:03 PM MDT (9/20)
Length of Visible Light 13h 07m
Length of Day
12h 14m
Waning Crescent, 11% of the Moon is Illuminated
Sep 20
Waning Crescent
Sep 24
New
Oct 1
First Quarter
Oct 8
Full
Oct 15
Last Quarter

Hourly Weather History & Observations

Time (MDT) Temp. Dew Point Humidity Pressure Visibility Wind Dir Wind Speed Gust Speed Precip Events Conditions
12:58 AM 63.5 °F 42.6 °F 47% 29.89 in 10.0 mi NNW 10.4 mph - N/A   Clear
1:58 AM 57.9 °F 41.9 °F 55% 29.93 in 10.0 mi NNW 8.1 mph - N/A   Clear
2:58 AM 55.6 °F 43.2 °F 63% 29.93 in 10.0 mi NNW 10.4 mph - N/A   Clear
3:58 AM 53.8 °F 42.8 °F 66% 29.94 in 10.0 mi NNW 8.1 mph - N/A   Clear
4:58 AM 52.9 °F 42.1 °F 67% 29.94 in 10.0 mi NNW 8.1 mph - N/A   Clear
5:58 AM 51.6 °F 42.1 °F 70% 29.98 in 10.0 mi NNW 8.1 mph - N/A   Clear
6:58 AM 53.6 °F 42.8 °F 67% 30.02 in 10.0 mi North 10.4 mph - N/A   Clear
7:58 AM 59.5 °F 45.0 °F 59% 30.03 in 10.0 mi NNE 4.6 mph - N/A   Clear
8:58 AM 69.1 °F 45.1 °F 42% 30.03 in 10.0 mi North 10.4 mph - N/A   Clear
9:58 AM 69.4 °F 44.4 °F 41% 30.05 in 10.0 mi North 16.1 mph - N/A   Clear
10:58 AM 72.3 °F 45.7 °F 39% 30.05 in 10.0 mi North 17.3 mph - N/A   Clear
11:58 AM 73.8 °F 45.5 °F 36% 30.06 in 10.0 mi NNW 12.7 mph 18.4 mph N/A   Clear
12:58 PM 76.3 °F 45.1 °F 33% 30.03 in 10.0 mi North 6.9 mph - N/A   Clear
1:58 PM 79.0 °F 44.1 °F 29% 30.02 in 10.0 mi Variable 6.9 mph - N/A   Clear
2:58 PM 77.9 °F 42.8 °F 29% 30.02 in 10.0 mi Variable 2.3 mph - N/A   Partly Cloudy
3:58 PM 78.4 °F 44.6 °F 30% 30.02 in 10.0 mi SE 9.2 mph - N/A   Partly Cloudy
4:58 PM 75.9 °F 44.4 °F 33% 30.04 in 10.0 mi East 9.2 mph - N/A   Clear
5:58 PM 73.4 °F 44.6 °F 36% 30.07 in 10.0 mi ENE 8.1 mph - N/A   Mostly Cloudy
6:58 PM 71.6 °F 45.5 °F 39% 30.11 in 10.0 mi NE 4.6 mph - N/A   Overcast
7:58 PM 69.4 °F 47.5 °F 45% 30.11 in 10.0 mi NNW 3.5 mph - N/A   Overcast
8:23 PM 68.0 °F 46.4 °F 46% 30.36 in 4.0 mi NNW 5.8 mph - N/A   Haze
8:28 PM 68.0 °F 48.2 °F 49% 30.37 in 3.0 mi NNW 5.8 mph - N/A   Haze
8:33 PM 68.0 °F 48.2 °F 49% 30.37 in 2.5 mi NNW 4.6 mph - N/A   Haze
8:46 PM 68.0 °F 48.2 °F 49% 30.38 in 2.5 mi NNW 6.9 mph - N/A   Light Drizzle
8:51 PM 68.0 °F 48.2 °F 49% 30.38 in 3.0 mi NNW 6.9 mph - N/A   Light Drizzle
8:56 PM 68.0 °F 48.2 °F 49% 30.38 in 4.0 mi NNW 5.8 mph - N/A   Light Drizzle
8:57 PM 68.0 °F 48.2 °F 49% 30.38 in 4.0 mi NNW 6.9 mph - N/A   Haze
8:58 PM 68.0 °F 48.2 °F 49% 30.11 in 4.0 mi NNW 6.9 mph - 0.00 in   Haze
9:13 PM 68.0 °F 48.2 °F 49% 30.39 in 5.0 mi North 6.9 mph - N/A   Haze
9:15 PM 68.0 °F 48.2 °F 49% 30.39 in 6.0 mi North 4.6 mph - N/A   Light Drizzle
9:30 PM 66.2 °F 48.2 °F 52% 30.41 in 4.0 mi West 11.5 mph - N/A   Light Drizzle
9:35 PM 66.2 °F 51.8 °F 60% 30.41 in 3.0 mi WNW 16.1 mph - N/A   Light Drizzle
9:40 PM 64.4 °F 51.8 °F 64% 30.41 in 5.0 mi WNW 10.4 mph 19.6 mph N/A   Light Drizzle
9:41 PM 64.4 °F 51.8 °F 64% 30.41 in 5.0 mi NW 9.2 mph - N/A   Haze
9:42 PM 64.4 °F 51.8 °F 64% 30.41 in 6.0 mi NW 9.2 mph - N/A   Light Drizzle
9:58 PM 64.9 °F 49.6 °F 58% 30.15 in 10.0 mi North 11.5 mph - 0.00 in   Light Drizzle
10:58 PM 61.3 °F 52.0 °F 71% 30.17 in 10.0 mi NW 4.6 mph - 0.00 in   Mostly Cloudy
11:58 PM 59.5 °F 52.0 °F 76% 30.16 in 10.0 mi Calm Calm - N/A   Scattered Clouds